{"data":{"norad_id":46782,"intl_designator":"2020-074AV","name":"STARLINK-1835","alt_names":[],"object_type":"PAYLOAD","status":"ACTIVE","operator":null,"country":"US","launch_date":"2020-10-24","launch_site_code":"AFETR","launch_vehicle":null,"mission":null,"orbit_class":"UNKNOWN","rcs_meters":null,"size_class":null,"mass_kg":null,"dimensions":null,"purposes":["comms"],"wikipedia_slug":null,"has_3d_model":false,"image_url":null,"decayed_at":null,"tle_current":{"epoch":"2026-05-25T00:50:06.505728Z","epoch_age_seconds":65904,"freshness":"FRESH","line1":"1 46782U 20074AV  26145.03479752  .00081198  00000+0  63003-3 0  9996","line2":"2 46782  53.0409 259.7732 0006249 254.6917 105.3410 15.71110280309293","mean_motion":15.7111028,"eccentricity":0.0006249,"inclination_deg":53.0409,"raan_deg":259.7732,"arg_perigee_deg":254.6917,"mean_anomaly_deg":105.341,"bstar":0.00063003,"rev_number":30929,"period_min":91.65492825876,"perigee_km":351.51467259109,"apogee_km":359.93065039603,"semimajor_km":6733.8596614936,"source":"CELESTRAK","updated_at":"2026-05-25T13:38:16.519642Z"}}}